Hourly Weather Golaszowka

Today, 7 May, Friday

Time Temperature Precipitation Wind Pressure Humidity
00:00 +6°C° 0 mm 4 mps 731 mmHg 77%
01:00 +6°C° 0 mm 4 mps 730 mmHg 76%
02:00 +6°C° 0.2 mm 5 mps 730 mmHg 80%
03:00 +6°C° 0.2 mm 5 mps 729 mmHg 83%
04:00 +5°C° 0.2 mm 6 mps 729 mmHg 87%
05:00 +5°C° 0 mm 6 mps 729 mmHg 87%
06:00 +7°C° 0 mm 6 mps 729 mmHg 87%
07:00 +7°C° 0 mm 6 mps 729 mmHg 87%
08:00 +8°C° 0 mm 6 mps 729 mmHg 84%
09:00 +9°C° 0 mm 6 mps 729 mmHg 80%
10:00 +10°C° 0 mm 5 mps 729 mmHg 76%
11:00 +12°C° 0.1 mm 5 mps 729 mmHg 73%
12:00 +13°C° 0.1 mm 5 mps 729 mmHg 70%
13:00 +13°C° 0.1 mm 5 mps 729 mmHg 67%
14:00 +13°C° 0.5 mm 5 mps 729 mmHg 71%
15:00 +12°C° 0.5 mm 5 mps 729 mmHg 75%
16:00 +10°C° 0.5 mm 5 mps 729 mmHg 80%
17:00 +9°C° 0.1 mm 6 mps 730 mmHg 80%
18:00 +8°C° 0.1 mm 6 mps 731 mmHg 79%
19:00 +5°C° 0.1 mm 7 mps 732 mmHg 79%
20:00 +4°C° 0 mm 7 mps 732 mmHg 78%
21:00 +4°C° 0 mm 6 mps 733 mmHg 77%
22:00 +3°C° 0 mm 6 mps 734 mmHg 77%
23:00 +2°C° 0 mm 6 mps 734 mmHg 77%

Tomorrow, 8 May, Saturday

Time Temperature Precipitation Wind Pressure Humidity
00:00 +2°C° 0 mm 6 mps 735 mmHg 77%
01:00 +1°C° 0 mm 6 mps 735 mmHg 77%
02:00 +1°C° 0 mm 6 mps 736 mmHg 80%
03:00 0°C° 0 mm 5 mps 736 mmHg 82%
04:00 0°C° 0 mm 5 mps 737 mmHg 85%
05:00 +1°C° 0 mm 5 mps 737 mmHg 81%
06:00 +2°C° 0 mm 5 mps 738 mmHg 78%
07:00 +3°C° 0 mm 6 mps 738 mmHg 74%
08:00 +4°C° 0.1 mm 6 mps 739 mmHg 71%
09:00 +5°C° 0.1 mm 6 mps 739 mmHg 68%
10:00 +7°C° 0.1 mm 6 mps 739 mmHg 65%
11:00 +7°C° 0 mm 5 mps 739 mmHg 64%
12:00 +7°C° 0 mm 5 mps 739 mmHg 63%
13:00 +7°C° 0 mm 5 mps 740 mmHg 61%
14:00 +8°C° 0 mm 5 mps 740 mmHg 59%
15:00 +9°C° 0 mm 5 mps 739 mmHg 57%
16:00 +11°C° 0 mm 4 mps 739 mmHg 55%
17:00 +9°C° 0 mm 3 mps 739 mmHg 64%
18:00 +7°C° 0 mm 2 mps 740 mmHg 73%
19:00 +6°C° 0 mm 1 mps 740 mmHg 81%
20:00 +6°C° 0 mm 1 mps 740 mmHg 83%
21:00 +5°C° 0 mm 1 mps 741 mmHg 84%
22:00 +4°C° 0 mm 2 mps 741 mmHg 86%
23:00 +3°C° 0 mm 2 mps 741 mmHg 85%

Day after tomorrow, 9 May, Sunday

Time Temperature Precipitation Wind Pressure Humidity
00:00 +3°C° 0 mm 2 mps 741 mmHg 85%
01:00 +3°C° 0 mm 2 mps 741 mmHg 85%
02:00 +3°C° 0 mm 2 mps 741 mmHg 87%
03:00 +3°C° 0 mm 2 mps 741 mmHg 88%
04:00 +2°C° 0 mm 2 mps 741 mmHg 90%
05:00 +4°C° 0 mm 3 mps 741 mmHg 83%
06:00 +7°C° 0 mm 3 mps 741 mmHg 75%
07:00 +8°C° 0 mm 4 mps 741 mmHg 68%
08:00 +10°C° 0 mm 5 mps 741 mmHg 62%
09:00 +12°C° 0 mm 5 mps 741 mmHg 56%
10:00 +14°C° 0 mm 6 mps 741 mmHg 51%
11:00 +14°C° 0 mm 6 mps 741 mmHg 51%
12:00 +15°C° 0 mm 6 mps 741 mmHg 51%
13:00 +15°C° 0 mm 7 mps 741 mmHg 51%
14:00 +15°C° 0 mm 6 mps 741 mmHg 54%
15:00 +15°C° 0 mm 6 mps 740 mmHg 57%
16:00 +15°C° 0 mm 6 mps 740 mmHg 60%
17:00 +14°C° 0 mm 6 mps 740 mmHg 63%
18:00 +13°C° 0 mm 5 mps 740 mmHg 66%
19:00 +10°C° 0 mm 5 mps 740 mmHg 68%
20:00 +9°C° 0 mm 5 mps 740 mmHg 70%
21:00 +9°C° 0 mm 5 mps 740 mmHg 72%
22:00 +8°C° 0 mm 4 mps 740 mmHg 74%
23:00 +8°C° 0 mm 4 mps 739 mmHg 74%

10 May, Monday

Time Temperature Precipitation Wind Pressure Humidity
00:00 +8°C° 0 mm 4 mps 739 mmHg 74%
01:00 +7°C° 0 mm 4 mps 739 mmHg 74%
02:00 +7°C° 0 mm 4 mps 739 mmHg 73%
03:00 +7°C° 0 mm 4 mps 739 mmHg 73%
04:00 +7°C° 0 mm 4 mps 739 mmHg 72%
05:00 +8°C° 0 mm 5 mps 739 mmHg 68%
06:00 +10°C° 0 mm 5 mps 739 mmHg 64%
07:00 +13°C° 0 mm 5 mps 739 mmHg 60%
08:00 +15°C° 0 mm 6 mps 739 mmHg 57%
09:00 +16°C° 0 mm 6 mps 739 mmHg 53%
10:00 +18°C° 0 mm 7 mps 739 mmHg 50%
11:00 +20°C° 0 mm 7 mps 739 mmHg 50%
12:00 +20°C° 0 mm 7 mps 739 mmHg 51%
13:00 +21°C° 0 mm 7 mps 738 mmHg 51%
14:00 +21°C° 0 mm 7 mps 738 mmHg 54%
15:00 +21°C° 0 mm 6 mps 738 mmHg 58%
16:00 +20°C° 0 mm 6 mps 738 mmHg 61%
17:00 +19°C° 0 mm 5 mps 738 mmHg 66%
18:00 +17°C° 0 mm 4 mps 738 mmHg 71%
19:00 +14°C° 0 mm 4 mps 738 mmHg 76%
20:00 +13°C° 0 mm 4 mps 738 mmHg 78%
21:00 +13°C° 0 mm 3 mps 738 mmHg 80%
22:00 +12°C° 0 mm 3 mps 738 mmHg 83%
23:00 +12°C° 0 mm 3 mps 738 mmHg 84%

11 May, Tuesday

Time Temperature Precipitation Wind Pressure Humidity
00:00 +11°C° 0 mm 3 mps 738 mmHg 85%
01:00 +11°C° 0 mm 3 mps 738 mmHg 86%
02:00 +11°C° 0 mm 4 mps 738 mmHg 86%
03:00 +11°C° 0 mm 4 mps 737 mmHg 85%
04:00 +11°C° 0 mm 4 mps 737 mmHg 85%
05:00 +13°C° 0 mm 4 mps 737 mmHg 79%
06:00 +14°C° 0 mm 4 mps 737 mmHg 73%
07:00 +16°C° 0 mm 5 mps 737 mmHg 68%
08:00 +17°C° 0 mm 5 mps 737 mmHg 62%
09:00 +20°C° 0 mm 6 mps 737 mmHg 57%
10:00 +22°C° 0 mm 6 mps 737 mmHg 52%
11:00 +22°C° 0 mm 6 mps 737 mmHg 51%
12:00 +23°C° 0 mm 6 mps 737 mmHg 50%
13:00 +25°C° 0 mm 5 mps 737 mmHg 49%
14:00 +23°C° 0 mm 5 mps 736 mmHg 53%
15:00 +23°C° 0 mm 5 mps 736 mmHg 57%
16:00 +22°C° 0 mm 4 mps 736 mmHg 61%
17:00 +20°C° 0 mm 4 mps 736 mmHg 68%
18:00 +18°C° 0 mm 3 mps 735 mmHg 75%
19:00 +16°C° 0 mm 3 mps 735 mmHg 82%
20:00 +14°C° 0 mm 3 mps 735 mmHg 83%
21:00 +13°C° 0 mm 3 mps 735 mmHg 84%
22:00 +12°C° 0 mm 3 mps 735 mmHg 85%
23:00 +12°C° 0 mm 3 mps 734 mmHg 85%

12 May, Wednesday

Time Temperature Precipitation Wind Pressure Humidity
00:00 +12°C° 0 mm 3 mps 734 mmHg 85%
01:00 +11°C° 0 mm 3 mps 734 mmHg 84%
02:00 +11°C° 0 mm 3 mps 733 mmHg 85%
03:00 +11°C° 0 mm 3 mps 733 mmHg 86%
04:00 +10°C° 0 mm 3 mps 733 mmHg 86%
05:00 +12°C° 0 mm 3 mps 733 mmHg 80%
06:00 +14°C° 0 mm 3 mps 733 mmHg 75%
07:00 +17°C° 0 mm 3 mps 733 mmHg 69%
08:00 +19°C° 0 mm 3 mps 732 mmHg 64%
09:00 +21°C° 0 mm 4 mps 732 mmHg 59%
10:00 +22°C° 0 mm 4 mps 732 mmHg 53%
11:00 +23°C° 0 mm 5 mps 731 mmHg 52%
12:00 +23°C° 0 mm 5 mps 731 mmHg 51%
13:00 +24°C° 0 mm 6 mps 730 mmHg 50%
14:00 +23°C° 0 mm 6 mps 730 mmHg 54%
15:00 +22°C° 0 mm 7 mps 729 mmHg 58%
16:00 +21°C° 0 mm 7 mps 729 mmHg 62%
17:00 +20°C° 0 mm 7 mps 728 mmHg 68%
18:00 +17°C° 0 mm 7 mps 728 mmHg 73%
19:00 +15°C° 0 mm 7 mps 727 mmHg 79%
20:00 +14°C° 0 mm 7 mps 727 mmHg 80%
21:00 +12°C° 0 mm 7 mps 727 mmHg 82%
22:00 +11°C° 0 mm 6 mps 727 mmHg 83%
23:00 +10°C° 0 mm 5 mps 726 mmHg 85%
Show more